Regional Weather Roundup
Issued by NWS

Home | Current Version | Previous Version | Text Only | Print | Product List | Glossary On
Versions: 1 2 3 4 5 6 7 8 9 10 11 12 13 14 15 16 17 18 19 20 21 22 23 24 25 26 27 28 29 30 31 32 33 34 35 36 37 38 39 40 41 42 43 44 45 46 47 48 49 50
000
ASUS43 KMPX 301110
RWRMN
WEATHER ROUNDUP FOR MINNESOTA
NATIONAL WEATHER SERVICE TWIN CITIES/CHANHASSEN MN
600 AM CDT SAT JUL 30 2016


NOTE: "FAIR" INDICATES FEW OR NO CLOUDS BELOW 12,000 FEET WITH NO
SIGNIFICANT WEATHER AND/OR OBSTRUCTIONS TO VISIBILITY. N/A MEANS
CURRENT SKY AND/OR WEATHER CONDITIONS ARE NOT AVAILABLE.

MNZ060>063-068>070-301200-
   Twin Cities Metro

CITY           SKY/WX    TMP DP  RH WIND       PRES   REMARKS
TWIN CITIES    MOCLDY    68  58  70 E5        30.02S
ST PAUL        CLOUDY    66  60  81 CALM      30.03S
CRYSTAL        MOCLDY    62  57  83 N3        30.01S
BLAINE         CLOUDY    61  61 100 CALM      30.03S
LAKEVILLE      MOCLDY    63  63 100 CALM      30.03R
EDEN PRAIRIE   PTCLDY    64  58  80 CALM      30.01S
LAKEVILLE      MOCLDY    63  63 100 CALM      30.03R
SOUTH ST PAUL  PTCLDY    65  59  79 CALM      30.02S
LAKE ELMO      FAIR      61  59  94 CALM      30.04S
$$
MNZ001>005-007-008-013>017-022>024-027-028-301200-
   Northwest Minnesota

CITY           SKY/WX    TMP DP  RH WIND       PRES   REMARKS
BEMIDJI        PTCLDY    57  56  94 SE3       30.03R
HALLOCK        CLEAR     57  55  94 S6        29.95S
ROSEAU         CLEAR     54  48  82 S5        29.98S
WARROAD        CLEAR     57  54  88 CALM      29.99S
THIEF RVR FALL PTCLDY    56  55  97 SE5       30.00R
CROOKSTON      CLOUDY    64  63  94 S5        29.98R
FOSSTON        CLOUDY    63  59  88 SE6       30.01S
DETROIT LAKES  LGT RAIN  64  61  88 S7        30.02F
MOORHEAD       CLOUDY    64  61  88 S8        29.98F
PARK RAPIDS    CLEAR     60  55  83 SE6       30.03S
MAHNOMEN       CLOUDY    64  62  91 S5        30.00S
$$
MNZ006-009>011-018-025>026-301200-
   North Central Minnesota

CITY           SKY/WX    TMP DP  RH WIND       PRES   REMARKS
BAUDETTE       CLEAR     56  54  93 S6        30.00R
FLAG ISLAND    CLEAR     66  61  82 SW3       29.97S
INTL FALLS     CLEAR     55  51  86 CALM      30.03S
WASKISH        CLEAR     59  55  88 S5        30.02R FOG
BIG FORK       PTCLDY    54  52  94 CALM      30.05S
LONGVILLE      PTCLDY    57  55  94 CALM      30.04F
GRAND RAPIDS   CLEAR     52  51  97 S3        30.08S
CRANE LAKE     PTCLDY    46  46 100 CALM      30.07S
ORR            CLOUDY    54  48  82 CALM      30.04S
COOK           CLOUDY    48  46  93 CALM      30.07S
WALKER         FAIR      60  55  84 SE6       30.03F
$$
MNZ012-019>021-037-301200-
   Northeast Minnesota

CITY           SKY/WX    TMP DP  RH WIND       PRES   REMARKS
DULUTH         PTCLDY    55  52  89 CALM      30.07R
ELY            CLOUDY    46  45  93 CALM      30.08R
HIBBING        PTCLDY    42  42 100 NW3       30.07S FOG
EVELETH        PTCLDY    45  44  97 CALM      30.08S
DULUTH HARBOR  CLOUDY    59  57  94 S3        30.07R
TWO HARBORS    CLOUDY    52  46  82 CALM      30.05R
SILVER BAY     CLEAR     46  46 100 CALM      30.06R
GRAND MARAIS     N/A     52  49  89 N3        30.06S
G MARAIS ARPRT CLEAR     45  41  87 CALM      30.10S
$$
MNZ029>031-032-039>041-046>048-054>057-064-301200-
   West Central Minnesota

CITY           SKY/WX    TMP DP  RH WIND       PRES   REMARKS
FERGUS FALLS   CLOUDY    63  61  94 S5        30.02F
WHEATON        CLOUDY    64  61  88 SE3       30.02S
MORRIS         CLEAR     57  57 100 SE5       30.01S
ALEXANDRIA     CLEAR     60  56  86 CALM      30.05S
ELBOW LAKE     FAIR      60  58  93 E5        30.02S
GLENWOOD         N/A     57  55  94 CALM      30.04S
APPLETON       CLEAR     57  55  94 E5        30.01S
BENSON         CLEAR     55  54  94 CALM      30.02F
ORTONVILLE     CLOUDY    61  55  82 SE3       30.01S
MADISON        CLEAR     55  54  94 SE3       30.01S
WILLMAR        FAIR      57  55  94 CALM      30.04S
$$
MNZ033>034-036-042>043-049>051-058-059-301200-
   Central Minnesota

CITY           SKY/WX    TMP DP  RH WIND       PRES   REMARKS
ST CLOUD       CLEAR     51  51 100 CALM      30.04S FOG
SAUK CENTRE    FAIR      56  56  99 CALM      30.04F
PAYNESVILLE    CLEAR     55  55 100 CALM      30.04S
AITKIN         CLEAR     52  48  87 CALM      30.04F FOG
PINE RIVER     PTCLDY    57  57 100 CALM      30.08S
BRAINERD       PTCLDY    56  55  97 CALM      30.05S
STAPLES        CLEAR     55  54  94 CALM      30.04F
LONG PRAIRIE   FAIR      55  54  94 NE3       30.05S
LITTLE FALLS   CLEAR     54  52  94 CALM      30.04F
LITCHFIELD     CLEAR     59  59 100 CALM      30.04S
BUFFALO        PTCLDY    60  56  87 CALM      30.04S
MAPLE LAKE       N/A     55  55  97 CALM      30.05S FOG
HUTCHINSON     FOG       53  53  99 CALM      30.04S VSB<1/4
$$
MNZ037-044-045-052-053-301200-
   East Central Minnesota

CITY           SKY/WX    TMP DP  RH WIND       PRES   REMARKS
PRINCETON        N/A     57  55  94 CALM      30.04F
MORA           PTCLDY    54  52  94 CALM      30.07S
CAMBRIDGE      CLOUDY    61  54  77 CALM      30.02S
RUSH CITY      CLOUDY    58  56  92 NE3       30.05S
MOOSE LAKE     MOCLDY    50  50 100 CALM      30.05R
HINCKLEY       PTSUNNY   54  54 100 CALM      30.06S
CLOQUET        PTCLDY    46  45  93 CALM      30.07R
MCGREGOR       PTCLDY    50  46  87 CALM      30.07S
$$
MNZ071>073-080-081-089-090-097-098-301200-
   Southwest Minnesota

CITY           SKY/WX    TMP DP  RH WIND       PRES   REMARKS
MONTEVIDEO     CLEAR     57  55  94 CALM      30.04S
GRANITE FALLS  CLEAR     57  55  95 E3        30.04S
CANBY          PTCLDY    59  55  84 CALM      30.03S
MARSHALL       PTCLDY    57  54  89 S5        30.03S
REDWOOD FALLS  CLEAR     56  53  90 CALM      30.03S
OLIVIA         CLEAR     54  52  94 CALM      30.02S
PIPESTONE      PTCLDY    59  52  77 CALM      30.04S
WINDOM         CLEAR     54  52  94 CALM      30.04S
WORTHINGTON    CLEAR     51  49  92 W6        30.05S
JACKSON        CLEAR     54  50  87 CALM      30.04S
TRACY          PTCLDY    60  56  87 SW5       30.04S
SLAYTON        PTCLDY    53  51  92 CALM      30.05S
$$
MNZ065>067-074>077-082>085-091>093-301200-
   South Central Minnesota

CITY           SKY/WX    TMP DP  RH WIND       PRES   REMARKS
MANKATO        MOCLDY    57  50  77 CALM      30.03S
NEW ULM        CLEAR     52  52 100 CALM      30.03S
ST JAMES       CLEAR     50  48  93 CALM      30.04S
FAIRMONT       PTCLDY    55  45  67 CALM      30.02S
GLENCOE        CLEAR     55  55  97 CALM      30.02F
FARIBAULT      CLOUDY    63  63 100 CALM      30.03S
OWATONNA       MOCLDY    63  59  88 CALM      30.03S
WASECA         CLOUDY    61  59  94 CALM      30.04S
ALBERT LEA     CLOUDY    63  61  94 CALM      30.03R
$$
MNZ078>079-086>088-094>096-301200-
   Southeast Minnesota

CITY           SKY/WX    TMP DP  RH WIND       PRES   REMARKS
ROCHESTER      CLOUDY    64  63  96 E6        30.04R
RED WING       PTCLDY    63  61  94 E3        30.01F
STANTON        CLOUDY    63  61  94 CALM      30.02R
DODGE CENTER   CLOUDY    61  59  94 CALM      30.04R
WINONA         CLOUDY    66  64  94 CALM      30.02S
AUSTIN         MOCLDY    61  59  94 CALM      30.03R
PRESTON        CLOUDY    62  61  95 CALM      30.04R FOG
$$
ABBREVIATIONS USED IN REMARKS
   TC - TEMPERATURES IN CELSIUS
  WCI - WIND CHILL INDEX
   HX - HEAT INDEX
  VSB - VISIBILITY
$$



USA.gov is the U.S. government's official web portal to all federal, state and local government web resources and services.